User: anonymous   Login
Location: Unspecified
(0.0000°N, 0.0000°E)
Time: 01:08:43
(UTC+00:00)
Language:

WGS 9 (USA 275) - Orbit

View from above orbital plane
View from above orbital plane
View from above satellite
View from above satellite

Ground track
Ground track

The orbit is defined by the following mean orbital elements,

1 42075U          26138.80830147 +.00000000 +00000-0 +00000-0 0 00002
2 42075   0.0172 282.0610 0000332 355.8699 237.5471  1.00270595    00
Epoch (UTC): 18 May 2026 19:23:57
Eccentricity: 0.0000332
inclination: 0.0172°
perigee height: 35786 km
apogee height: 35788 km
right ascension of ascending node: 282.0610°
argument of perigee: 355.8699°
revolutions per day: 1.00270595
mean anomaly at epoch: 237.5471°

The dashed part of the orbit path shows where the satellite is in the earth's shadow,  

DLR